Location: Christianberg
(48.9086°N, 14.0209°E)
Time: 21:12:11
(UTC+00:00)

S3M - Pass Details

Date: 20 June 2021
Orbit: 950 x 1003 km, 83.0° (Epoch: 04 August)

Event Time Altitude Azimuth Distance (km) Brightness Sun altitude
Rises 02:07:35 0° 348° (NNW) 3,642 7.6 -7.1°
Reaches altitude 10° 02:10:05 10° 345° (NNW) 2,696 6.8 -6.8°
Maximum altitude 02:16:09 62° 267° (W) 1,075 4.1 -6.1°
Drops below altitude 10° 02:22:15 10° 188° (S) 2,709 5.9 -5.4°
Sets 02:24:47 0° 185° (S) 3,660 6.5 -5.1°
